Skip Page Navigation
NASA JPL Caltech
NASA Logo - Jet Propulsion Laboratory + View the NASA Portal
+ Near-Earth Object (NEO) Program
Search JPL
JPL Home Earth Solar System Stars & Galaxies Technology
JPL Solar System Dynamics
BODIES ORBITS EPHEMERIDES TOOLS PHYSICAL DATA DISCOVERY FAQ SITE MAP
JPL Small-Body Database Browser
Search: [ help ]  
26375 (1999 DE9)
Classification: TransNeptunian Object          SPK-ID: 2026375
Ephemeris | Orbit Diagram | Orbital Elements | Physical Parameters | Discovery Circumstances ]

[ hide orbit diagram ]
Orbit Diagram
Note: Make sure you have Java enabled on your browser to see the applet. This applet is provided as a 3D orbit visualization tool. The applet was implemented using 2-body methods, and hence should not be used for determining accurate long-term trajectories (over several years or decades) or planetary encounter circumstances. For accurate long-term ephemerides, please instead use our Horizons system.
Orbit Viewer

Additional Notes: the orbits shown in the applet are color coded. The planets are white lines, and the asteroid/comet is a blue line. The bright white line indicates the portion of the orbit that is above the ecliptic plane, and the darker portion is below the ecliptic plane. Likewise for the asteroid/comet orbit, the light blue indicates the portion above the ecliptic plane, and the dark blue the portion below the ecliptic plane.

Orbit Viewer applet originally written and kindly provided by Osamu Ajiki (AstroArts), and further modified by Ron Baalke (JPL).


Orbital Elements at Epoch 2456400.5 (2013-Apr-18.0) TDB
Reference: JPL 15 (heliocentric ecliptic J2000)
 Element Value Uncertainty (1-sigma)   Units 
e .4207824747922022 0.00011998  
a 55.64237904773909 0.013578 AU
q 32.22904108870566 0.0012614 AU
i 7.610326377470597 0.00020674 deg
node 322.9245666503562 0.00046644 deg
peri 159.4548826224835 0.0069756 deg
M 23.5229545817284 0.01092 deg
tp 2446494.545433097386
(1986-Mar-05.04543310)
1.0495 JED
period 151602.7092470333
415.07
55.49
0.1519
d
yr
n .002374627747670313 8.6916e-07 deg/d
Q 79.05571700677253 0.019291 AU
  Orbit Determination Parameters
   # obs. used (total)      71  
   data-arc span      6619 days (18.12 yr)  
   first obs. used      1990-01-29  
   last obs. used      2008-03-14  
   planetary ephem.      DE405  
   SB-pert. ephem.      SB405-CPV-2  
   condition code      3  
   fit RMS      .51472  
   data source      ORB  
   producer      Otto Matic  
   solution date      2011-Sep-14 19:04:41  

Additional Information
 Earth MOID = 31.2455 AU 
 T_jup = 5.974 
[ show covariance matrix ]

Ephemeris | Orbit Diagram | Orbital Elements | Physical Parameters | Discovery Circumstances ]

Physical Parameter Table
Parameter Symbol Value Units Sigma Reference Notes
absolute magnitude H 4.7 mag n/a PDS3 (MPO 13974)  
rotation period rot_per 24. h n/a Asteroid Lightcurve DataBase (Rev. 2013-May-01) [lower-limit; Result based on fragmentary lightcurve(s), may be completely wrong.]

26375 (1999 DE9)          Discovered 1999-Feb-20 by Trujillo, C. A., Luu, J. at Kitt Peak (695)
Reference: 20010705/Numbers.arcLast Updated: 2004-04-19
Ephemeris | Orbit Diagram | Orbital Elements | Physical Parameters | Discovery Circumstances ]
ABOUT SSD CREDITS/AWARDS PRIVACY/COPYRIGHT GLOSSARY LINKS
FirstGov 2013-May-22 03:46 UT
(server date/time)  
NASA Home Page
Site Manager:   Donald K. Yeomans
Webmaster  Alan B. Chamberlin